sat.trackr.live / text

‹ back to catalog

STARLINK-3386

NORAD 51126 · 2022-005Y

PAYLOAD ACTIVE UNKNOWN

§ Identity

Operator
Country
US
Launch date
2022-01-19
Launch site
AFETR
Launch vehicle
Mass (kg)
RCS (m²)

Purposes: comms

External: N2YO · Heavens-Above · Gunter

§ Orbital elements

Epoch: 2026-09-20T04:13:22.392768Z

Period
94.01 min
Inclination
53.1595°
Eccentricity
0.0001375
Mean motion
15.31707195 rev/d
Perigee alt
469.8 km
Apogee alt
471.7 km
Semi-major
6,848.9 km
B*
-6.8416e-6
RAAN
131.4090°
Arg perigee
93.9636°
Mean anomaly
266.1522°
Rev number
25,830

§ Raw data

STARLINK-33861 51126U 22005Y   26263.17595362 -.00000578  00000+0 -68416-5 0  99922 51126  53.1595 131.4090 0001375  93.9636 266.1522 15.31707195258306

JSON: /api/v1/satellites/51126 · /tle

For live sub-satellite position, see the globe view (requires WebGL).

§ Visibility from observer

Set your observer location to see the next 7 days of passes ≥ 10°. The values pass through the URL so the page stays shareable.

No JS? Fill the form by hand. The geolocation button needs JavaScript.